Weather History for Fayetteville, AR

Change the Weather History Date:

Tuesday, December 25, 2012

  Actual Average Record
Temperature  
Mean Temperature 29 °F 36 °F  
Max Temperature 32 °F 46 °F 72 °F (1955)
Min Temperature 25 °F 25 °F -8 °F (1983)
Degree Days  
Heating Degree Days 36 29  
Month to date heating degree days 487 678  
Since 1 July heating degree days 1300 1507  
Moisture  
Dew Point 21 °F    
Average Humidity 74    
Maximum Humidity 85    
Minimum Humidity 63    
Precipitation  
Precipitation T in 0.09 in 0.58 in (1949)
Month to date precipitation 1.93 2.67  
Year to date precipitation 29.84 47.94  
Sea Level Pressure  
Sea Level Pressure 29.97 in    
Wind  
Wind Speed 11 mph (NNE)    
Max Wind Speed 20 mph    
Max Gust Speed 31 mph    
Visibility 8 miles    
Events Snow    
T = Trace of Precipitation, MM = Missing Value Source: NWS Daily Summary

Daily Weather History Graph

Daily Weather History Graph

Search for Another Location

Airport:

Trip Planner

Search our weather history database for the weather conditions in past years. The results will help you decide how hot, cold, wet, or windy it might be!

Date:

Astronomy

Dec. 25, 2012 Rise Set
Actual Time 7:25 AM CST 5:08 PM CST
Civil Twilight 6:56 AM CST 5:37 PM CST
Nautical Twilight 6:24 AM CST 6:09 PM CST
Astronomical Twilight 5:53 AM CST 6:40 PM CST
Moon 3:16 PM CST (12/25) 4:59 AM CST (12/25)
Length of Visible Light 10h 40m
Length of Day
9h 43m
Waxing Gibbous, 94% of the Moon is Illuminated
Dec 25
Waxing Gibbous
Dec 28
Full
Jan 4
Last Quarter
Jan 11
New
Jan 18
First Quarter

Hourly Weather History & Observations

Time (CST) Temp. Windchill Dew Point Humidity Pressure Visibility Wind Dir Wind Speed Gust Speed Precip Events Conditions
12:53 AM 32.0 °F 24.8 °F 24.1 °F 73% 29.96 in 6.0 mi NE 8.1 mph - N/A   Haze
1:53 AM 30.0 °F 25.2 °F 24.1 °F 79% 29.99 in 6.0 mi NNE 4.6 mph - N/A   Haze
2:53 AM 28.9 °F 21.1 °F 24.1 °F 82% 29.99 in 5.0 mi NE 8.1 mph - N/A   Haze
3:53 AM 28.0 °F 20.0 °F 23.0 °F 81% 29.98 in 5.0 mi NE 8.1 mph - N/A   Haze
4:53 AM 27.0 °F 21.6 °F 21.9 °F 81% 29.97 in 5.0 mi NNE 4.6 mph - N/A   Haze
5:53 AM 26.1 °F 17.6 °F 21.0 °F 81% 30.00 in 6.0 mi NE 8.1 mph - N/A   Haze
6:53 AM 26.1 °F 17.6 °F 19.9 °F 78% 30.02 in 6.0 mi NE 8.1 mph - N/A   Haze
7:53 AM 26.1 °F 15.6 °F 21.0 °F 81% 29.99 in 6.0 mi ENE 11.5 mph 23.0 mph N/A   Haze
8:53 AM 27.0 °F 16.1 °F 19.9 °F 75% 29.97 in 6.0 mi ENE 12.7 mph 21.9 mph N/A   Haze
9:53 AM 27.0 °F 16.1 °F 19.9 °F 75% 29.96 in 6.0 mi ENE 12.7 mph 26.5 mph N/A   Haze
10:53 AM 28.0 °F 17.5 °F 21.0 °F 75% 29.95 in 6.0 mi ENE 12.7 mph 23.0 mph N/A   Haze
11:53 AM 28.0 °F 18.6 °F 19.9 °F 72% 29.91 in 7.0 mi NNE 10.4 mph 21.9 mph N/A   Overcast
12:53 PM 28.0 °F 18.1 °F 19.0 °F 69% 29.91 in 10.0 mi NNE 11.5 mph 23.0 mph N/A   Overcast
1:53 PM 28.9 °F 18.6 °F 19.0 °F 67% 29.93 in 10.0 mi NE 12.7 mph 23.0 mph N/A   Overcast
2:53 PM 30.0 °F 18.7 °F 19.9 °F 66% 29.93 in 10.0 mi NE 16.1 mph 29.9 mph N/A   Overcast
3:53 PM 30.9 °F 24.3 °F 21.0 °F 67% 29.94 in 10.0 mi NNE 6.9 mph 18.4 mph 0.00 in   Overcast
4:53 PM 30.9 °F 22.8 °F 21.0 °F 67% 29.94 in 10.0 mi NNE 9.2 mph 19.6 mph N/A   Overcast
5:14 PM 30.2 °F 23.4 °F 21.2 °F 69% 29.91 in 10.0 mi NNE 6.9 mph - N/A   Overcast
5:53 PM 30.0 °F 20.5 °F 21.0 °F 69% 29.96 in 10.0 mi NNE 11.5 mph 20.7 mph N/A   Overcast
6:53 PM 30.0 °F 20.5 °F 21.9 °F 72% 29.97 in 10.0 mi North 11.5 mph 23.0 mph N/A   Overcast
7:53 PM 28.9 °F 18.2 °F 21.9 °F 75% 29.98 in 6.0 mi North 13.8 mph 24.2 mph 0.00 in Snow Light Snow
8:53 PM 28.9 °F 18.6 °F 21.0 °F 72% 29.99 in 10.0 mi North 12.7 mph 26.5 mph 0.00 in   Overcast
9:53 PM 27.0 °F 15.6 °F 19.9 °F 75% 30.00 in 10.0 mi North 13.8 mph 26.5 mph N/A   Overcast
10:53 PM 26.1 °F 13.6 °F 19.0 °F 75% 30.01 in 10.0 mi North 16.1 mph 27.6 mph N/A   Overcast
11:53 PM 26.1 °F 15.6 °F 19.0 °F 75% 30.03 in 10.0 mi North 11.5 mph 26.5 mph N/A   Overcast